Regional Weather Roundup
Issued by NWS

Home | Current Version | Previous Version | Graphics & Text | Print | Product List | Glossary On
Versions: 1 2 3 4 5 6 7 8 9 10 11 12 13 14 15 16 17 18 19 20 21 22 23 24 25 26 27 28 29 30 31 32 33 34 35 36 37 38 39 40 41 42 43 44 45 46 47 48 49 50
569
ASUS43 KDTX 251010
RWRMI
MICHIGAN HOURLY REGIONAL WEATHER ROUNDUP
NATIONAL WEATHER SERVICE DETROIT/PONTIAC MI
500 AM EST SAT FEB 25 2017

NOTE: "FAIR" INDICATES FEW OR NO CLOUDS BELOW 12,000 FEET WITH NO
SIGNIFICANT WEATHER AND/OR OBSTRUCTION TO VISIBILITY.

MIZ047>049-052>055-059>063-066>070-074>076-081>083-251100-
SOUTHEAST LOWER MICHIGAN

CITY           SKY/WX    TMP DP  RH WIND       PRES   REMARKS
ADRIAN         MOCLDY    38  35  89 SW7       29.53S WCI  33
ALMA           PTCLDY    33  30  88 SW14G22   29.47S WCI  23
ANN ARBOR      CLEAR     36  32  85 S6        29.51S WCI  31
BAD AXE        CLOUDY    37  32  82 SW17G24   29.43S WCI  27
CARO           MOCLDY    37  32  84 SW20G26   29.44S WCI  26
DETROIT CITY   CLOUDY    41  32  70 W10G22    29.52R
DETROIT        PTCLDY    40  32  73 W7        29.52S
FLINT          CLEAR     36  30  79 W13G21    29.48F WCI  27
GROSSE ILE     PTCLDY    40  33  74 W7        29.52F
HILLSDALE      CLOUDY    36  32  87 SW9       29.50R WCI  29
HOWELL         PTCLDY    35  31  85 W9        29.48S WCI  28

CITY           SKY/WX    TMP DP  RH WIND       PRES   REMARKS
JACKSON        CLOUDY    38  32  79 S6        29.50S WCI  33
LAMBERTVILLE   PTCLDY    41  35  76 W5        29.54F
LANSING        CLOUDY    35  30  82 SW7       29.50F WCI  29
LAPEER         MOCLDY    38  32  79 W8        29.48R WCI  32
MASON          CLOUDY    37  33  85 SW5       29.50S WCI  33
MONROE         CLEAR     40  35  81 W10       29.53S WCI  34
MT. CLEMENS    MOCLDY    41  34  77 W13       29.50R
PONTIAC        CLEAR     37  30  75 SW8G18    29.47S WCI  31
PORT HOPE        N/A     39  34  82 SW13G29   29.38F WCI  31
PORT HURON     MOCLDY    41  34  75 SW10G23   29.49R
TRI CITIES     PTCLDY    35  31  85 SW21      29.44F WCI  24
MIDLAND        CLOUDY    36  30  78 SW14G22   29.42F WCI  27
TROY           CLOUDY    40  32  73 SW7       29.52S WCI  35
SAGINAW HB     MOCLDY    36  30  80 SW21G29   29.44F WCI  24
$$
MIZ043>046-050>051-056>058-064>065-071>073-077>080-251100-
SOUTHWEST LOWER MICHIGAN

CITY           SKY/WX    TMP DP  RH WIND       PRES   REMARKS
BATTLE CREEK   CLOUDY    34  31  88 W13       29.52R WCI  25
BENTON HARBOR  CLOUDY    32  27  81 W16G25    29.58S WCI  21
BIG RAPIDS     CLOUDY    32  30  92 W14       29.42S WCI  22
COLDWATER      CLOUDY    36  34  94 W10       29.53R WCI  28
FREMONT        LGT SNOW  30  29  98 W10G20    29.48S WCI  21
HOLLAND        LGT SNOW  30  27  88 W14G23    29.55S FOG     WCI  19
GRAND RAPIDS   CLOUDY    31  28  89 W14       29.51R WCI  21
IONIA          CLOUDY    32  29  88 SW16G23   29.49S WCI  21
KALAMAZOO      LGT SNOW  33  29  85 W6        29.53F FOG     WCI  28
LUDINGTON      SNOW      29  28  98 NW12G17   29.48R VSB 1/2 WCI  19
MARSHALL       LGT SNOW  35  34  96 W12G17    29.51R WCI  27
MOUNT PLEASANT PTCLDY    33  31  90 SW15      29.43S WCI  23
MUSKEGON       LGT SNOW  29  26  89 W17G23    29.54R FOG     WCI  17
SOUTH HAVEN    LGT SNOW  31  30  96 W8        29.57S WCI  23
$$
MIZ016>042-251100-
NORTHERN LOWER MICHIGAN

CITY           SKY/WX    TMP DP  RH WIND       PRES   REMARKS
ALPENA         CLOUDY    33  33 100 W5        29.34F FOG     WCI  29
BEAVER ISLAND  CLOUDY    23  22  95 N6        29.42S FOG     WCI  16
BELLAIRE       LGT SNOW  28  27  96 NW6       29.41S WCI  21
CADILLAC       LGT SNOW  30  28  91 NW13      29.37F WCI  20
CHARLEVOIX     LGT SNOW  25  25 100 NW9       29.44R WCI  15
FRANKFORT      LGT SNOW  28  27  95 NW8       29.45S WCI  20
GAYLORD        LGT SNOW  32  28  85 W3        29.33S FOG
GRAYLING       LGT SNOW  32  32  99 SW7       29.36S WCI  26
HARBOR SPRINGS CLOUDY    24  23  95 N8        29.38S FOG     WCI  15
HOUGHTON LAKE  CLOUDY    34  31  88 SW12      29.37S WCI  25
MANISTEE       LGT SNOW  28  27  93 NW10      29.46R FOG     WCI  19
OSCODA         CLOUDY    38  37  97 SW13      29.36F WCI  30
PELLSTON       CLOUDY    24  21  88 NW10      29.39S FOG     WCI  14
ROGERS CITY    CLOUDY    31  30  95 CALM      29.35F FOG
TRAVERSE CITY  FLURRIES  28  25  88 NW10      29.43S WCI  19
$$
MIZ007>008-015-251100-
EASTERN UPPER MICHIGAN

CITY           SKY/WX    TMP DP  RH WIND       PRES   REMARKS
KINROSS        LGT SNOW  20  19  96 N12       29.37F FOG     WCI   8
MACKINAC ISLAN CLOUDY    22  22 100 NW9       29.37F FOG     WCI  12
NEWBERRY       CLOUDY    21  20  97 N7        29.39F FOG     WCI  12
S. S. MARIE    CLOUDY    21  18  88 N8        29.37F FOG     WCI  11
MUNISING         N/A     24  20  84 N17       29.46F WCI  11
$$
MIZ004>006-011>014-085-251100-
CENTRAL UPPER MICHIGAN

CITY           SKY/WX    TMP DP  RH WIND       PRES   REMARKS
MANISTIQUE     CLOUDY    23  22  98 N12G20    29.43S FOG     WCI  12
ESCANABA       LGT SNOW  22  18  85 NW13      29.49R FOG     WCI  10
MENOMINEE      LGT SNOW  20  17  88 NW10G16   29.55R FOG     WCI   9
SAWYER-GWINN   LGT SNOW  18  15  86 N15G25    29.49R WCI   4
$$
MIZ001>003-009>011-084-251100-
WESTERN UPPER MICHIGAN

CITY           SKY/WX    TMP DP  RH WIND       PRES   REMARKS
IRON MOUNTAIN  LGT SNOW  18  11  74 NW16      29.52R WCI   3
HOUGHTON       CLOUDY    16  10  77 N17       29.56F HAZE    WCI   0
COPPER HARBOR    N/A     21  17  84 NE29      29.56F WCI   3
IRONWOOD       FLURRIES  15  10  80 NW14G25   29.67F WCI   0
$$

ABBREVIATIONS USED IN REMARKS
   TC - TEMPERATURE IN CELSIUS
  WCI - WIND CHILL INDEX
   HX - HEAT INDEX
  VSB - VISIBILITY





USA.gov is the U.S. government's official web portal to all federal, state and local government web resources and services.